Regional Weather Roundup
Issued by NWS

Home | Current Version | Previous Version | Text Only | Print | Product List | Glossary Off
Versions: 1 2 3 4 5 6 7 8 9 10 11 12 13 14 15 16 17 18 19 20 21 22 23 24 25 26 27 28 29 30 31 32 33 34 35 36 37 38 39 40 41 42 43 44 45 46 47 48 49 50

000
ASUS43 KMKX 180600
RWRWI

WISCONSIN REGIONAL WEATHER ROUNDUP
NATIONAL WEATHER SERVICE MILWAUKEE/SULLIVAN WI
100 AM CDT FRI APR 18 2014

NOTE: "FAIR" INDICATES FEW OR NO CLOUDS BELOW 12,000 FEET WITH NO
SIGNIFICANT WEATHER AND/OR OBSTRUCTIONS TO VISIBILITY.

WIZ001-002-006>008-014>016-023>028-180700-
NORTHWEST WISCONSIN

CITY           SKY/WX    TMP DP  RH WIND       PRES   REMARKS
SUPERIOR ARPT  FAIR      24  21  88 CALM      30.33S
ASHLAND        FAIR      26  24  92 W3        30.33R
6HR MIN TEMP:  25; 6HR MAX TEMP:  35;

HAYWARD        FOG       20  17  88 CALM      30.30S VSB 1/4
6HR MIN TEMP:  20; 6HR MAX TEMP:  35;

SIREN          FAIR      23  22  96 CALM      30.32S
RICE LAKE      FOG       25  24  96 CALM      30.33R VSB 1
LADYSMITH      FAIR      27  25  91 CALM      30.31S
EAU CLAIRE     NOT AVBL
MENOMONIE      FAIR      29  27  92 CALM      30.32S
NEW RICHMOND   FAIR      28  28  99 CALM      30.32R
OSCEOLA        FAIR      24  23  96 CALM      30.35R
$$

WIZ003>005-009-010-017-018-180700-
NORTH CENTRAL WISCONSIN

CITY           SKY/WX    TMP DP  RH WIND       PRES   REMARKS
WOODRUFF       CLOUDY    32  26  79 NW7       30.27S WCI  26
RHINELANDER    CLOUDY    31  24  75 NW6       30.27S WCI  25
6HR MIN TEMP:  31; 6HR MAX TEMP:  33;

EAGLE RIVER    CLOUDY    31  23  72 NW5       30.26R WCI  26
LAND O LAKES   CLOUDY    31  25  79 NW6       30.27R WCI  25
PHILLIPS       FAIR      29  24  82 CALM      30.27F
TOMAHAWK       CLOUDY    32  26  78 CALM      30.28S
MEDFORD        CLOUDY    32  25  77 N3        30.29R
MERRILL        CLOUDY    33  26  76 CALM      30.28S
$$

WIZ029-030-035-036-043>047-180700-
CENTRAL WISCONSIN

CITY           SKY/WX    TMP DP  RH WIND       PRES   REMARKS
WAUSAU         CLOUDY    34  25  69 NW5       30.28R WCI  30
6HR MIN TEMP:  34; 6HR MAX TEMP:  37;

MOSINEE        CLOUDY    32  28  86 NW5       30.29S WCI  27
MARSHFIELD     CLOUDY    34  26  72 N6        30.29S WCI  29
6HR MIN TEMP:  34; 6HR MAX TEMP:  38;

STEVENS POINT  CLOUDY    33  27  76 CALM      30.30R
WAUPACA        CLOUDY    39  28  65 NW7       30.29F WCI  34
WAUTOMA        NOT AVBL
WISC RAPIDS    CLOUDY    35  27  72 NW3       30.31S
6HR MIN TEMP:  35; 6HR MAX TEMP:  39;

CAMP DOUGLAS   NOT AVBL
$$

WIZ011>013-019>022-031-037>040-048>050-180700-
NORTHEAST WISCONSIN

CITY           SKY/WX    TMP DP  RH WIND       PRES   REMARKS
ANTIGO         CLOUDY    32  26  78 N7        30.27S WCI  25
STURGEON BAY   CLOUDY    37  30  75 NW8       30.29R WCI  31
6HR MIN TEMP:  37; 6HR MAX TEMP:  43;

GREEN BAY      CLOUDY    37  33  85 NW3       30.29R
6HR MIN TEMP:  36; 6HR MAX TEMP:  48;

MANITOWOC      NOT AVBL
APPLETON       FAIR      32  28  86 NW6       30.28F WCI  26
CLINTONVILLE   CLOUDY    37  30  75 N8        30.29S WCI  31
OSHKOSH        FAIR      35  29  78 NW5       30.28S WCI  31
6HR MIN TEMP:  34; 6HR MAX TEMP:  49;

$$

WIZ032>034-041-042-053>061-180700-
SOUTHWEST WISCONSIN

CITY           SKY/WX    TMP DP  RH WIND       PRES   REMARKS
LA CROSSE      MOCLDY    37  26  64 N6        30.33R WCI  32
6HR MIN TEMP:  37; 6HR MAX TEMP:  40;

SPARTA         CLOUDY    36  28  72 N3        30.32S
VIROQUA        FAIR      33  29  86 CALM      30.29R
BOSCOBEL       FAIR      30  27  88 CALM      30.32R FOG
6HR MIN TEMP:  30; 6HR MAX TEMP:  48;

PRAIRIE DU CHI FAIR      32  28  85 CALM      30.32R
PLATTEVILLE    FAIR      32  29  90 N5        30.30S WCI  28
$$

WIZ056-057-062-063-064-067-068-180700-
SOUTH CENTRAL WISCONSIN

CITY           SKY/WX    TMP DP  RH WIND       PRES   REMARKS
BARABOO/DELLS  FAIR      30  28  91 CALM      30.29S
LONE ROCK      NOT AVBL
WATERTOWN      FAIR      36  32  86 N5        30.28S WCI  32
MADISON        FAIR      33  30  88 NW3       30.30R
6HR MIN TEMP:  33; 6HR MAX TEMP:  52;

MIDDLETON      FAIR      32  31  95 CALM      30.29S
MONROE         FAIR      36  36 100 N8        30.28R WCI  30
6HR MIN TEMP:  36; 6HR MAX TEMP:  53;

JANESVILLE     FAIR      41  32  70 N6        30.28S
$$

WIZ051-052-058>065-066-070>072-180700-
SOUTHEAST WISCONSIN

CITY           SKY/WX    TMP DP  RH WIND       PRES   REMARKS
MILWAUKEE      MOCLDY    43  35  73 N6        30.28R
6HR MIN TEMP:  43; 6HR MAX TEMP:  55;

WAUKESHA       MOCLDY    37  34  87 NW5       30.28R WCI  34
MILWAUKEE/TIMM MOCLDY    41  32  70 N7        30.28R
RACINE         FAIR      42  36  79 NE5       30.29R
6HR MIN TEMP:  39; 6HR MAX TEMP:  54;

BURLINGTON     FAIR      40  35  83 N5        30.27R
KENOSHA        MOCLDY    41  37  86 N6        30.27R
6HR MIN TEMP:  41; 6HR MAX TEMP:  53;

FOND DU LAC    FAIR      34  29  82 NW5       30.28S WCI  30
6HR MIN TEMP:  34; 6HR MAX TEMP:  50;

SHEBOYGAN      FAIR      37  33  85 NW7       30.28R WCI  32
6HR MIN TEMP:  37; 6HR MAX TEMP:  52;

WEST BEND      MOCLDY    36  32  87 NW7       30.27R WCI  30
JUNEAU         FAIR      34  31  89 NW5       30.29S WCI  30
$$

LSZ147-162-180700-
LAKE SUPERIOR

STATION/POSITION TIME  TEMP    WIND        PRES    WAVE
                       AIR SEA DIR/SP/G            HT/PER
                 (UTC) (F)     (DEG/KT/KT) (MB)    (FT/S)
DEVILS ISLAND    0500   33     290/ 10/ 11 1027.7R
PORT WING        0540   27     170/  3/  4 1027.1R
SAXON HARBOR     0540             CALM     1026.4S
$$

LMZ867-665-643>646-180700-
LAKE MICHIGAN

STATION/POSITION TIME  TEMP    WIND        PRES    WAVE
                       AIR SEA DIR/SP/G            HT/PER
                 (UTC) (F)     (DEG/KT/KT) (MB)    (FT/S)
NORTHPORT PIER   0500   38     290/  6/ 10 1024.7S
SISTER BAY       0523   36        CALM       N/A
KEWAUNEE LAKESHO 0500   40     300/  4/  4 1025.4F
SHEBOYGAN LAKESH 0500   41     360/  9/ 10 1025.8R
PORT WASHINGTON  0500   43     320/  6/ 10 1025.4R
MILWAUKEE LAKESH 0500   46     340/  8/ 10   N/A
KENOSHA   LAKESH 0500   45     210/  3/  5   N/A
$$

TC  - TEMPERATURE IN CELSIUS
VSB - VISIBILITY IN STATUTE MILES
WCI - WIND CHILL INDEX
HX  - HEAT INDEX




USA.gov is the U.S. government's official web portal to all federal, state and local government web resources and services.